• MPC Preparation (Info)

  • MPEC 2010-Q08 : P/2003 S2 (NEAT) = P/2010 P5

    The following Minor Planet Electronic Circular may be linked-to from your own Web pages, but must not otherwise be redistributed electronically.

    A form allowing access to any MPEC is at the bottom of this page.


    Read MPEC 2010-Q07 Read MPEC 2010-Q09


    M.P.E.C. 2010-Q08                                Issued 2010 Aug. 17, 20:26 UT
    
         The Minor Planet Electronic Circulars contain information on unusual
             minor planets and routine data on comets.  They are published
       on behalf of Commission 20 of the International Astronomical Union by the
              Minor Planet Center, Smithsonian Astrophysical Observatory,
                              Cambridge, MA 02138, U.S.A.
    
                 Prepared using the Tamkin Foundation Computer Network
    
                                  MPC@CFA.HARVARD.EDU
           URL https://www.minorplanetcenter.org/iau/mpc.html  ISSN 1523-6714
    
                             P/2003 S2 (NEAT) = P/2010 P5
    
    Observations:
        PK10P050  C2010 08 15.31331 21 13 19.06 -25 30 51.5          18.9 T EQ008H06
        PK10P050  C2010 08 15.32972 21 13 18.21 -25 30 56.6          19.0 T EQ008H06
        PK10P050  C2010 08 15.34611 21 13 17.61 -25 31 03.0          19.1 T EQ008H06
        PK10P050  C2010 08 17.33718 21 11 50.45 -25 40 15.4          18.9 N EQ008H06
        PK10P050  C2010 08 17.36167 21 11 49.37 -25 40 21.6          19.0 N EQ008H06
    
    Observer details:
    H06 RAS Observatory, Mayhill.  Observers E. Guido, G. Sostero.  0.25-m f/3.4
        reflector + CCD.
    
    Orbital elements:
    P/2003 S2 (NEAT) = P/2010 P5
    Epoch 2011 Mar. 20.0 TT = JDT 2455640.5
    T 2011 Mar. 3.18648 TT                                  MPC
    q   2.4560144            (2000.0)            P               Q
    n   0.13113841     Peri.  283.88978     +0.97100079     -0.19883578
    a   3.8369202      Node    87.70344     +0.23599637     +0.88600032
    e   0.3598995      Incl.    7.63454     -0.03825161     +0.41888873
    P   7.52
    From 289 observations 2003 Aug. 1-2010 Aug. 17, mean residual 0".68.
    
    P/2003 S2 (NEAT) = P/2010 P5
    Epoch 2003 Aug. 29.0 TT = JDT 2452880.5
    T 2003 Sept. 7.29180 TT                                 MPC
    q   2.4574403            (2000.0)            P               Q
    n   0.13134695     Peri.  284.21820     +0.96957165     -0.20565845
    a   3.8328578      Node    87.77734     +0.24223590     +0.88438601
    e   0.3588491      Incl.    7.63711     -0.03539194     +0.41900594
    P   7.50
    From 289 observations 2003 Aug. 1-2010 Aug. 17, mean residual 0".68.
    
